Location: Bannatyne
(13.0833°N, 59.5333°W)
Time: 08:07:37
(UTC+00:00)

deb Explorer IX - Pass Details

Date: 25 January 2020
Orbit: 549 x 1099 km, 38.8° (Epoch: 17 February)

Event Time Altitude Azimuth Distance (km) Brightness Sun altitude
Rises 00:46:19 0° 262° (W) 3,560 ? -40.8°
Reaches altitude 10° 00:49:13 10° 274° (W) 2,700 ? -41.5°
Enters shadow 00:52:09 22° 296° (WNW) 2,046 ? -42.2°
Maximum altitude 00:54:44 28° 330° (NNW) 1,846 - -42.8°
Drops below altitude 10° 01:00:42 10° 26° (NNE) 2,917 - -44.2°
Sets 01:03:59 0° 38° (NE) 3,896 - -45.0°
